| time (UTC) | temp F | wind direction | speed MPH | gust MPH | rain 1hr in | rain 24hr in | rain mn in | humidity % | barometer mb |
| 20260831082310 | 78 | 194 | 7.0 | 10.0 | 0.00 | 0.00 | 0.00 | 82 | 1010.2 |
| 20260831081733 | 78 | 166 | 8.0 | 10.0 | 0.00 | 0.00 | 0.00 | 83 | 1010.3 |
| 20260831081543 | 77 | 164 | 7.0 | 10.0 | 0.00 | 0.00 | 0.00 | 83 | 1007.5 |
| 20260831081245 | 78 | 186 | 8.0 | 10.0 | 0.00 | 0.00 | 0.00 | 83 | 1010.3 |
| 20260831080727 | 78 | 178 | 8.0 | 12.0 | 0.00 | 0.00 | 0.00 | 83 | 1010.2 |
| 20260831080239 | 78 | 169 | 7.0 | 13.0 | 0.00 | 0.00 | 0.00 | 83 | 1010.2 |
| 20260831080054 | 77 | 157 | 7.0 | 10.0 | 0.00 | 0.00 | 0.00 | 83 | 1007.3 |
| 20260831075748 | 78 | 193 | 8.0 | 10.0 | 0.00 | 0.00 | 0.00 | 83 | 1010.2 |
| 20260831075230 | 78 | 167 | 8.0 | 11.0 | 0.00 | 0.00 | 0.00 | 83 | 1010.3 |
| 20260831074744 | 78 | 161 | 7.0 | 9.0 | 0.00 | 0.00 | 0.00 | 83 | 1010.3 |
| 20260831074553 | 77 | 174 | 6.0 | 8.0 | 0.00 | 0.00 | 0.00 | 83 | 1007.5 |
| 20260831074231 | 78 | 155 | 7.0 | 10.0 | 0.00 | 0.00 | 0.00 | 83 | 1010.4 |
| 20260831073742 | 78 | 162 | 7.0 | 9.0 | 0.00 | 0.00 | 0.00 | 82 | 1010.5 |
| 20260831073228 | 78 | 163 | 6.0 | 8.0 | 0.00 | 0.00 | 0.00 | 82 | 1010.6 |
| 20260831073056 | 78 | 178 | 6.0 | 8.0 | 0.00 | 0.00 | 0.00 | 82 | 1007.7 |
| 20260831072742 | 78 | 174 | 6.0 | 8.0 | 0.00 | 0.00 | 0.00 | 82 | 1010.6 |
| 20260831072224 | 78 | 186 | 6.0 | 8.0 | 0.00 | 0.00 | 0.00 | 82 | 1010.6 |
| 20260831071732 | 78 | 167 | 7.0 | 9.0 | 0.00 | 0.00 | 0.00 | 82 | 1010.6 |
| 20260831071503 | 78 | 178 | 5.0 | 7.0 | 0.00 | 0.00 | 0.00 | 82 | 1007.8 |
| 20260831071245 | 78 | 177 | 5.0 | 7.0 | 0.00 | 0.00 | 0.00 | 82 | 1010.7 |
| 20260831070727 | 78 | 169 | 5.0 | 7.0 | 0.00 | 0.00 | 0.00 | 82 | 1010.8 |
| 20260831070239 | 78 | 176 | 5.0 | 7.0 | 0.00 | 0.00 | 0.00 | 82 | 1010.7 |
| 20260831070015 | 78 | 186 | 5.0 | 8.0 | 0.00 | 0.00 | 0.00 | 82 | 1007.9 |
| 20260831065750 | 78 | 177 | 5.0 | 8.0 | 0.00 | 0.00 | 0.00 | 82 | 1010.7 |
| 20260831065242 | 79 | 180 | 6.0 | 8.0 | 0.00 | 0.00 | 0.00 | 82 | 1010.8 |
| 20260831064723 | 79 | 213 | 3.0 | 5.0 | 0.00 | 0.00 | 0.00 | 81 | 1010.8 |
| 20260831064555 | 78 | 254 | 2.0 | 4.0 | 0.00 | 0.00 | 0.00 | 81 | 1008.0 |
| 20260831064236 | 79 | 254 | 3.0 | 4.0 | 0.00 | 0.00 | 0.00 | 81 | 1010.7 |
| 20260831063742 | 79 | 254 | 3.0 | 7.0 | 0.00 | 0.00 | 0.00 | 81 | 1010.6 |
| 20260831063225 | 79 | 254 | 4.0 | 8.0 | 0.00 | 0.00 | 0.00 | 80 | 1010.6 |
| 20260831063059 | 79 | 254 | 5.0 | 8.0 | 0.00 | 0.00 | 0.00 | 80 | 1007.8 |
| 20260831062758 | 80 | 254 | 5.0 | 8.0 | 0.00 | 0.00 | 0.00 | 79 | 1010.7 |
| 20260831062253 | 80 | 240 | 5.0 | 7.0 | 0.00 | 0.00 | 0.00 | 78 | 1010.5 |
| 20260831061753 | 80 | 286 | 3.0 | 7.0 | 0.00 | 0.00 | 0.00 | 78 | 1010.5 |
| 20260831061604 | 80 | 286 | 4.0 | 7.0 | 0.00 | 0.00 | 0.00 | 77 | 1007.6 |
| 20260831061246 | 81 | 288 | 5.0 | 7.0 | 0.00 | 0.00 | 0.00 | 77 | 1010.5 |
| 20260831060727 | 81 | 221 | 4.0 | 7.0 | 0.00 | 0.00 | 0.00 | 76 | 1010.4 |
| 20260831060234 | 81 | 175 | 4.0 | 7.0 | 0.00 | 0.00 | 0.00 | 76 | 1010.1 |
| 20260831060057 | 81 | 187 | 4.0 | 9.0 | 0.00 | 0.00 | 0.00 | 76 | 1007.2 |
| 20260831055747 | 81 | 184 | 5.0 | 9.0 | 0.00 | 0.00 | 0.00 | 76 | 1010.1 |
| 20260831055232 | 81 | 169 | 6.0 | 8.0 | 0.00 | 0.00 | 0.00 | 76 | 1010.0 |
| 20260831054743 | 82 | 202 | 7.0 | 10.0 | 0.00 | 0.00 | 0.00 | 76 | 1010.1 |
| 20260831054556 | 81 | 163 | 7.0 | 12.0 | 0.00 | 0.00 | 0.00 | 76 | 1007.2 |
| 20260831054227 | 82 | 180 | 7.0 | 12.0 | 0.00 | 0.00 | 0.00 | 76 | 1010.0 |
| 20260831053758 | 82 | 152 | 7.0 | 14.0 | 0.00 | 0.00 | 0.00 | 76 | 1009.9 |
| 20260831053221 | 82 | 165 | 8.0 | 11.0 | 0.00 | 0.00 | 0.00 | 76 | 1009.8 |
| 20260831053039 | 82 | 177 | 8.0 | 12.0 | 0.00 | 0.00 | 0.00 | 75 | 1007.0 |
| 20260831052749 | 83 | 169 | 8.0 | 11.0 | 0.00 | 0.00 | 0.00 | 75 | 1009.9 |
| 20260831052231 | 83 | 165 | 8.0 | 9.0 | 0.00 | 0.00 | 0.00 | 75 | 1010.0 |
| 20260831051743 | 83 | 143 | 7.0 | 10.0 | 0.00 | 0.00 | 0.00 | 75 | 1009.9 |
| 20260831051551 | 83 | 175 | 6.0 | 12.0 | 0.00 | 0.00 | 0.00 | 75 | 1007.1 |
| 20260831051228 | 83 | 153 | 8.0 | 12.0 | 0.00 | 0.00 | 0.00 | 75 | 1009.8 |
| 20260831050736 | 84 | 170 | 9.0 | 12.0 | 0.00 | 0.00 | 0.00 | 75 | 1009.8 |
| 20260831050249 | 84 | 158 | 8.0 | 11.0 | 0.00 | 0.00 | 0.00 | 75 | 1009.9 |
| 20260831050042 | 83 | 153 | 5.0 | 10.0 | 0.00 | 0.00 | 0.00 | 75 | 1007.0 |
| 20260831045731 | 84 | 154 | 5.0 | 9.0 | 0.00 | 0.00 | 0.00 | 75 | 1010.0 |
| 20260831045245 | 84 | 141 | 5.0 | 9.0 | 0.00 | 0.00 | 0.00 | 75 | 1010.0 |
| 20260831044724 | 84 | 132 | 5.0 | 9.0 | 0.00 | 0.00 | 0.00 | 74 | 1010.0 |
| 20260831044548 | 84 | 143 | 5.0 | 9.0 | 0.00 | 0.00 | 0.00 | 74 | 1007.1 |
| 20260831044238 | 84 | 129 | 6.0 | 10.0 | 0.00 | 0.00 | 0.00 | 74 | 1009.9 |
| 20260831043748 | 84 | 141 | 7.0 | 11.0 | 0.00 | 0.00 | 0.00 | 74 | 1009.9 |
| 20260831043240 | 85 | 126 | 8.0 | 11.0 | 0.00 | 0.00 | 0.00 | 74 | 1009.9 |
| 20260831043028 | 84 | 131 | 7.0 | 11.0 | 0.00 | 0.00 | 0.00 | 74 | 1007.0 |
| 20260831042725 | 85 | 130 | 6.0 | 9.0 | 0.00 | 0.00 | 0.00 | 74 | 1009.9 |
| 20260831042259 | 85 | 134 | 5.0 | 8.0 | 0.00 | 0.00 | 0.00 | 74 | 1009.9 |
| 20260831041807 | 85 | 117 | 6.0 | 9.0 | 0.00 | 0.00 | 0.00 | 74 | 1010.0 |
| 20260831041553 | 84 | 132 | 5.0 | 9.0 | 0.00 | 0.00 | 0.00 | 73 | 1007.1 |
| 20260831041233 | 85 | 118 | 5.0 | 9.0 | 0.00 | 0.00 | 0.00 | 73 | 1010.0 |
| 20260831040743 | 85 | 140 | 5.0 | 8.0 | 0.00 | 0.00 | 0.00 | 73 | 1010.0 |
| 20260831040229 | 85 | 130 | 5.0 | 8.0 | 0.00 | 0.00 | 0.00 | 72 | 1010.1 |
| 20260831040056 | 84 | 140 | 4.0 | 8.0 | 0.00 | 0.00 | 0.00 | 72 | 1007.2 |
| 20260831035742 | 85 | 146 | 3.0 | 5.0 | 0.00 | 0.00 | 0.00 | 71 | 1010.1 |
| 20260831035227 | 85 | 146 | 4.0 | 5.0 | 0.00 | 0.00 | 0.00 | 71 | 1010.3 |
| 20260831034800 | 85 | 146 | 4.0 | 5.0 | 0.00 | 0.00 | 0.00 | 71 | 1010.3 |
| 20260831034548 | 84 | 146 | 3.0 | 5.0 | 0.00 | 0.00 | 0.00 | 71 | 1007.5 |
| 20260831034225 | 85 | 146 | 3.0 | 5.0 | 0.00 | 0.00 | 0.00 | 71 | 1010.3 |
| 20260831033733 | 85 | 136 | 4.0 | 7.0 | 0.00 | 0.00 | 0.00 | 71 | 1010.4 |
| 20260831033306 | 85 | 147 | 4.0 | 7.0 | 0.00 | 0.00 | 0.00 | 71 | 1010.3 |
| 20260831033024 | 85 | 131 | 4.0 | 7.0 | 0.00 | 0.00 | 0.00 | 71 | 1007.5 |
| 20260831032729 | 85 | 136 | 4.0 | 7.0 | 0.00 | 0.00 | 0.00 | 71 | 1010.3 |
| 20260831032242 | 85 | 133 | 4.0 | 5.0 | 0.00 | 0.00 | 0.00 | 71 | 1010.3 |
| 20260831031727 | 85 | 133 | 4.0 | 5.0 | 0.00 | 0.00 | 0.00 | 71 | 1010.4 |
| 20260831031522 | 85 | 133 | 3.0 | 4.0 | 0.00 | 0.00 | 0.00 | 71 | 1007.6 |
| 20260831031300 | 85 | 133 | 3.0 | 4.0 | 0.00 | 0.00 | 0.00 | 71 | 1010.4 |
| 20260831030722 | 86 | 133 | 3.0 | 4.0 | 0.00 | 0.00 | 0.00 | 71 | 1010.4 |
| 20260831030229 | 86 | 133 | 3.0 | 5.0 | 0.00 | 0.00 | 0.00 | 71 | 1010.5 |
| 20260831030013 | 85 | 133 | 3.0 | 5.0 | 0.00 | 0.00 | 0.00 | 71 | 1007.7 |
| 20260831025743 | 86 | 133 | 3.0 | 5.0 | 0.00 | 0.00 | 0.00 | 71 | 1010.5 |
| 20260831025224 | 86 | 133 | 3.0 | 5.0 | 0.00 | 0.00 | 0.00 | 71 | 1010.5 |
| 20260831024756 | 86 | 133 | 3.0 | 5.0 | 0.00 | 0.00 | 0.00 | 71 | 1010.5 |
| 20260831024600 | 86 | 131 | 3.0 | 5.0 | 0.00 | 0.00 | 0.00 | 71 | 1007.6 |
| 20260831024248 | 86 | 132 | 3.0 | 5.0 | 0.00 | 0.00 | 0.00 | 70 | 1010.5 |
| 20260831023731 | 86 | 131 | 3.0 | 5.0 | 0.00 | 0.00 | 0.00 | 70 | 1010.4 |
| 20260831023243 | 86 | 134 | 4.0 | 5.0 | 0.00 | 0.00 | 0.00 | 69 | 1010.3 |
| 20260831023010 | 86 | 134 | 3.0 | 5.0 | 0.00 | 0.00 | 0.00 | 69 | 1007.5 |
| 20260831022725 | 87 | 134 | 3.0 | 5.0 | 0.00 | 0.00 | 0.00 | 69 | 1010.3 |
| 20260831022237 | 87 | 134 | 3.0 | 5.0 | 0.00 | 0.00 | 0.00 | 69 | 1010.3 |
| 20260831021746 | 87 | 134 | 3.0 | 5.0 | 0.00 | 0.00 | 0.00 | 68 | 1010.3 |
| 20260831021555 | 86 | 134 | 3.0 | 7.0 | 0.00 | 0.00 | 0.00 | 68 | 1007.3 |
| 20260831021239 | 87 | 113 | 4.0 | 7.0 | 0.00 | 0.00 | 0.00 | 67 | 1010.3 |
| 20260831020809 | 87 | 130 | 4.0 | 7.0 | 0.00 | 0.00 | 0.00 | 66 | 1010.2 |
| 20260831020231 | 88 | 131 | 3.0 | 4.0 | 0.00 | 0.00 | 0.00 | 66 | 1010.2 |
| 20260831020045 | 87 | 136 | 2.0 | 4.0 | 0.00 | 0.00 | 0.00 | 66 | 1007.3 |
| 20260831015743 | 88 | 207 | 3.0 | 4.0 | 0.00 | 0.00 | 0.00 | 65 | 1010.2 |
| 20260831015227 | 88 | 207 | 3.0 | 4.0 | 0.00 | 0.00 | 0.00 | 65 | 1010.2 |
| 20260831014734 | 89 | 207 | 3.0 | 4.0 | 0.00 | 0.00 | 0.00 | 64 | 1010.0 |
| 20260831014551 | 88 | 207 | 2.0 | 4.0 | 0.00 | 0.00 | 0.00 | 64 | 1007.0 |
| 20260831014309 | 89 | 207 | 2.0 | 3.0 | 0.00 | 0.00 | 0.00 | 64 | 1009.9 |
| 20260831013731 | 89 | 207 | 3.0 | 3.0 | 0.00 | 0.00 | 0.00 | 63 | 1009.9 |
| 20260831013243 | 90 | 207 | 2.0 | 3.0 | 0.00 | 0.00 | 0.00 | 62 | 1009.9 |
| 20260831013034 | 89 | 207 | 2.0 | 3.0 | 0.00 | 0.00 | 0.00 | 62 | 1006.9 |
| 20260831012725 | 90 | 207 | 1.0 | 3.0 | 0.00 | 0.00 | 0.00 | 61 | 1009.8 |
| 20260831012256 | 90 | 207 | 2.0 | 3.0 | 0.00 | 0.00 | 0.00 | 61 | 1009.8 |
| 20260831011743 | 90 | 207 | 1.0 | 2.0 | 0.00 | 0.00 | 0.00 | 60 | 1009.8 |
| 20260831011515 | 90 | 207 | 0.0 | 2.0 | 0.00 | 0.00 | 0.00 | 60 | 1007.0 |
| 20260831011229 | 91 | 207 | 1.0 | 2.0 | 0.00 | 0.00 | 0.00 | 60 | 1009.8 |
| 20260831010800 | 91 | 207 | 2.0 | 2.0 | 0.00 | 0.00 | 0.00 | 60 | 1009.8 |
| 20260831010249 | 91 | 207 | 1.0 | 2.0 | 0.00 | 0.00 | 0.00 | 59 | 1009.7 |
| 20260831010042 | 91 | 207 | 0.0 | 2.0 | 0.00 | 0.00 | 0.00 | 59 | 1006.8 |
| 20260831005740 | 92 | 207 | 1.0 | 2.0 | 0.00 | 0.00 | 0.00 | 59 | 1009.7 |
| 20260831005254 | 92 | 207 | 2.0 | 2.0 | 0.00 | 0.00 | 0.00 | 58 | 1009.7 |
| 20260831004802 | 92 | 207 | 1.0 | 3.0 | 0.00 | 0.00 | 0.00 | 58 | 1009.7 |
| 20260831004558 | 92 | 207 | 1.0 | 3.0 | 0.00 | 0.00 | 0.00 | 58 | 1006.7 |
| 20260831004228 | 93 | 207 | 1.0 | 3.0 | 0.00 | 0.00 | 0.00 | 58 | 1009.7 |
| 20260831003739 | 93 | 207 | 2.0 | 3.0 | 0.00 | 0.00 | 0.00 | 58 | 1009.7 |
| 20260831003223 | 93 | 207 | 2.0 | 3.0 | 0.00 | 0.00 | 0.00 | 58 | 1009.7 |
| 20260831003007 | 93 | 207 | 1.0 | 3.0 | 0.00 | 0.00 | 0.00 | 58 | 1006.8 |
| 20260831002755 | 93 | 207 | 2.0 | 3.0 | 0.00 | 0.00 | 0.00 | 58 | 1009.8 |
| 20260831002248 | 93 | 207 | 2.0 | 3.0 | 0.00 | 0.00 | 0.00 | 58 | 1009.7 |
| 20260831001734 | 93 | 207 | 2.0 | 3.0 | 0.00 | 0.00 | 0.00 | 58 | 1009.7 |
| 20260831001551 | 93 | 207 | 2.0 | 3.0 | 0.00 | 0.00 | 0.00 | 58 | 1006.8 |
| 20260831001246 | 94 | 207 | 2.0 | 3.0 | 0.00 | 0.00 | 0.00 | 58 | 1009.8 |
| 20260831000733 | 94 | 207 | 2.0 | 3.0 | 0.00 | 0.00 | 0.00 | 58 | 1009.7 |
| 20260831000248 | 94 | 207 | 2.0 | 3.0 | 0.00 | 0.00 | 0.00 | 58 | 1009.7 |
| 20260831000039 | 93 | 207 | 2.0 | 4.0 | 0.00 | 0.00 | 0.00 | 57 | 1006.8 |
| 20260830235727 | 94 | 207 | 2.0 | 4.0 | 0.00 | 0.00 | 0.00 | 57 | 1009.7 |
| 20260830235238 | 94 | 207 | 2.0 | 4.0 | 0.00 | 0.00 | 0.00 | 57 | 1009.8 |
| 20260830234721 | 95 | 207 | 2.0 | 4.0 | 0.00 | 0.00 | 0.00 | 58 | 1009.7 |
| 20260830234555 | 94 | 207 | 1.0 | 4.0 | 0.00 | 0.00 | 0.00 | 58 | 1006.9 |
| 20260830234237 | 95 | 207 | 2.0 | 4.0 | 0.00 | 0.00 | 0.00 | 58 | 1009.8 |
| 20260830233750 | 95 | 207 | 2.0 | 4.0 | 0.00 | 0.00 | 0.00 | 58 | 1009.8 |
| 20260830233237 | 95 | 207 | 3.0 | 5.0 | 0.00 | 0.00 | 0.00 | 57 | 1009.7 |
| 20260830233043 | 95 | 207 | 2.0 | 5.0 | 0.00 | 0.00 | 0.00 | 57 | 1006.8 |
| 20260830232748 | 96 | 207 | 3.0 | 6.0 | 0.00 | 0.00 | 0.00 | 57 | 1009.7 |
| 20260830232230 | 96 | 207 | 4.0 | 7.0 | 0.00 | 0.00 | 0.00 | 55 | 1009.7 |
| 20260830231803 | 96 | 207 | 4.0 | 7.0 | 0.00 | 0.00 | 0.00 | 54 | 1009.6 |
| 20260830231526 | 96 | 198 | 5.0 | 7.0 | 0.00 | 0.00 | 0.00 | 55 | 1006.7 |
| 20260830231229 | 96 | 201 | 4.0 | 7.0 | 0.00 | 0.00 | 0.00 | 55 | 1009.6 |
| 20260830230742 | 96 | 199 | 4.0 | 7.0 | 0.00 | 0.00 | 0.00 | 55 | 1009.6 |
| 20260830230227 | 96 | 182 | 5.0 | 7.0 | 0.00 | 0.00 | 0.00 | 56 | 1009.5 |
| 20260830230037 | 96 | 208 | 3.0 | 7.0 | 0.00 | 0.00 | 0.00 | 56 | 1006.6 |
| 20260830225754 | 96 | 224 | 4.0 | 6.0 | 0.00 | 0.00 | 0.00 | 55 | 1009.5 |
| 20260830225244 | 96 | 182 | 4.0 | 10.0 | 0.00 | 0.00 | 0.00 | 56 | 1009.5 |
| 20260830224728 | 96 | 202 | 5.0 | 10.0 | 0.00 | 0.00 | 0.00 | 55 | 1009.4 |
| 20260830224525 | 95 | 196 | 6.0 | 10.0 | 0.00 | 0.00 | 0.00 | 55 | 1006.6 |
| 20260830224243 | 96 | 218 | 6.0 | 8.0 | 0.00 | 0.00 | 0.00 | 55 | 1009.4 |
| 20260830223723 | 95 | 215 | 5.0 | 10.0 | 0.00 | 0.00 | 0.00 | 55 | 1009.4 |
| 20260830223234 | 96 | 215 | 7.0 | 10.0 | 0.00 | 0.00 | 0.00 | 54 | 1009.5 |
| 20260830223018 | 95 | 191 | 5.0 | 11.0 | 0.00 | 0.00 | 0.00 | 55 | 1006.6 |
| 20260830222745 | 96 | 185 | 6.0 | 11.0 | 0.00 | 0.00 | 0.00 | 55 | 1009.5 |
| 20260830222227 | 95 | 177 | 6.0 | 10.0 | 0.00 | 0.00 | 0.00 | 54 | 1009.5 |
| 20260830221734 | 95 | 209 | 6.0 | 10.0 | 0.00 | 0.00 | 0.00 | 57 | 1009.4 |
| 20260830221542 | 94 | 200 | 5.0 | 10.0 | 0.00 | 0.00 | 0.00 | 57 | 1006.6 |
| 20260830221246 | 95 | 202 | 6.0 | 9.0 | 0.00 | 0.00 | 0.00 | 58 | 1009.4 |
| 20260830220725 | 94 | 197 | 6.0 | 9.0 | 0.00 | 0.00 | 0.00 | 57 | 1009.5 |
| 20260830220237 | 94 | 215 | 5.0 | 8.0 | 0.00 | 0.00 | 0.00 | 58 | 1009.5 |
| 20260830220034 | 94 | 211 | 4.0 | 7.0 | 0.00 | 0.00 | 0.00 | 59 | 1006.7 |
| 20260830215721 | 94 | 192 | 4.0 | 7.0 | 0.00 | 0.00 | 0.00 | 58 | 1009.6 |
| 20260830215233 | 93 | 195 | 4.0 | 7.0 | 0.00 | 0.00 | 0.00 | 59 | 1009.7 |
| 20260830214746 | 93 | 214 | 5.0 | 7.0 | 0.00 | 0.00 | 0.00 | 59 | 1009.5 |
| 20260830214534 | 93 | 200 | 3.0 | 5.0 | 0.00 | 0.00 | 0.00 | 59 | 1006.6 |
| 20260830214231 | 93 | 211 | 4.0 | 5.0 | 0.00 | 0.00 | 0.00 | 61 | 1009.4 |
| 20260830213756 | 93 | 198 | 3.0 | 6.0 | 0.00 | 0.00 | 0.00 | 57 | 1009.4 |
| 20260830213306 | 93 | 177 | 4.0 | 7.0 | 0.00 | 0.00 | 0.00 | 54 | 1009.4 |
| 20260830213053 | 93 | 194 | 4.0 | 7.0 | 0.00 | 0.00 | 0.00 | 54 | 1006.5 |
| 20260830212726 | 94 | 184 | 5.0 | 7.0 | 0.00 | 0.00 | 0.00 | 54 | 1009.5 |
| 20260830212238 | 94 | 202 | 4.0 | 8.0 | 0.00 | 0.00 | 0.00 | 53 | 1009.4 |
| 20260830211808 | 94 | 198 | 4.0 | 11.0 | 0.00 | 0.00 | 0.00 | 55 | 1009.5 |
| 20260830211531 | 93 | 205 | 5.0 | 12.0 | 0.00 | 0.00 | 0.00 | 54 | 1006.7 |
| 20260830211230 | 94 | 215 | 7.0 | 12.0 | 0.00 | 0.00 | 0.00 | 53 | 1009.5 |
| 20260830210734 | 93 | 204 | 8.0 | 10.0 | 0.00 | 0.00 | 0.00 | 55 | 1009.6 |
| 20260830210246 | 92 | 199 | 7.0 | 15.0 | 0.00 | 0.00 | 0.00 | 58 | 1009.6 |
| 20260830210036 | 91 | 217 | 7.0 | 15.0 | 0.00 | 0.00 | 0.00 | 58 | 1006.7 |
| 20260830205729 | 92 | 217 | 9.0 | 12.0 | 0.00 | 0.00 | 0.00 | 60 | 1009.7 |
| 20260830205242 | 91 | 205 | 8.0 | 11.0 | 0.00 | 0.00 | 0.00 | 62 | 1009.8 |
| 20260830204726 | 90 | 221 | 6.0 | 11.0 | 0.00 | 0.00 | 0.00 | 66 | 1009.8 |
| 20260830204552 | 89 | 213 | 6.0 | 11.0 | 0.00 | 0.00 | 0.00 | 67 | 1007.0 |
| 20260830204241 | 89 | 212 | 7.0 | 10.0 | 0.00 | 0.00 | 0.00 | 64 | 1010.1 |
| 20260830203752 | 89 | 211 | 6.0 | 11.0 | 0.00 | 0.00 | 0.00 | 62 | 1010.2 |
| 20260830203244 | 90 | 222 | 6.0 | 11.0 | 0.00 | 0.00 | 0.00 | 60 | 1010.1 |
| 20260830203031 | 90 | 218 | 8.0 | 11.0 | 0.00 | 0.00 | 0.00 | 59 | 1007.5 |
| 20260830202723 | 91 | 214 | 7.0 | 10.0 | 0.00 | 0.00 | 0.00 | 58 | 1010.1 |
| 20260830202235 | 91 | 231 | 6.0 | 10.0 | 0.00 | 0.00 | 0.00 | 58 | 1009.9 |
| 20260830201747 | 92 | 208 | 6.0 | 10.0 | 0.00 | 0.00 | 0.00 | 57 | 1009.8 |
| 20260830201537 | 91 | 207 | 4.0 | 10.0 | 0.00 | 0.00 | 0.00 | 57 | 1006.9 |
| 20260830201234 | 92 | 218 | 5.0 | 10.0 | 0.00 | 0.00 | 0.00 | 56 | 1009.6 |
| 20260830200745 | 92 | 219 | 6.0 | 10.0 | 0.00 | 0.00 | 0.00 | 58 | 1009.7 |
| 20260830200228 | 92 | 209 | 6.0 | 10.0 | 0.00 | 0.00 | 0.00 | 57 | 1009.8 |
| 20260830200045 | 92 | 207 | 6.0 | 10.0 | 0.00 | 0.00 | 0.00 | 58 | 1007.0 |
| 20260830195740 | 92 | 197 | 7.0 | 10.0 | 0.00 | 0.00 | 0.00 | 57 | 1010.0 |
| 20260830195224 | 92 | 203 | 7.0 | 12.0 | 0.00 | 0.00 | 0.00 | 61 | 1010.1 |
| 20260830194729 | 92 | 218 | 7.0 | 12.0 | 0.00 | 0.00 | 0.00 | 60 | 1010.3 |
| 20260830194515 | 91 | 225 | 8.0 | 12.0 | 0.00 | 0.00 | 0.00 | 59 | 1007.6 |
| 20260830194244 | 91 | 214 | 9.0 | 13.0 | 0.00 | 0.00 | 0.00 | 62 | 1010.3 |
| 20260830193726 | 91 | 213 | 5.0 | 11.0 | 0.00 | 0.00 | 0.00 | 63 | 1010.4 |
| 20260830193238 | 90 | 203 | 8.0 | 11.0 | 0.00 | 0.00 | 0.00 | 63 | 1010.6 |
| 20260830193015 | 90 | 200 | 7.0 | 12.0 | 0.00 | 0.00 | 0.00 | 63 | 1007.8 |
| 20260830192748 | 90 | 197 | 7.0 | 10.0 | 0.00 | 0.00 | 0.00 | 64 | 1010.5 |
| 20260830192230 | 90 | 208 | 7.0 | 11.0 | 0.00 | 0.00 | 0.00 | 64 | 1010.4 |
| 20260830191741 | 90 | 194 | 6.0 | 12.0 | 0.00 | 0.00 | 0.00 | 63 | 1010.4 |
| 20260830191518 | 89 | 210 | 7.0 | 10.0 | 0.00 | 0.00 | 0.00 | 63 | 1007.6 |
| 20260830191225 | 90 | 207 | 6.0 | 10.0 | 0.00 | 0.00 | 0.00 | 63 | 1010.4 |
| 20260830190731 | 90 | 203 | 6.0 | 10.0 | 0.00 | 0.00 | 0.00 | 62 | 1010.3 |
| 20260830190302 | 90 | 202 | 7.0 | 11.0 | 0.00 | 0.00 | 0.00 | 59 | 1010.3 |
| 20260830190124 | 90 | 217 | 5.0 | 11.0 | 0.00 | 0.00 | 0.00 | 60 | 1007.4 |
| 20260830185724 | 90 | 159 | 6.0 | 11.0 | 0.00 | 0.00 | 0.00 | 60 | 1010.0 |
| 20260830185236 | 90 | 207 | 6.0 | 10.0 | 0.00 | 0.00 | 0.00 | 62 | 1010.2 |
| 20260830184749 | 90 | 190 | 6.0 | 12.0 | 0.00 | 0.00 | 0.00 | 62 | 1010.2 |
| 20260830184539 | 89 | 209 | 7.0 | 12.0 | 0.00 | 0.00 | 0.00 | 62 | 1007.5 |
| 20260830184241 | 89 | 153 | 7.0 | 12.0 | 0.00 | 0.00 | 0.00 | 61 | 1010.3 |
| 20260830183723 | 89 | 209 | 6.0 | 9.0 | 0.00 | 0.00 | 0.00 | 63 | 1010.2 |
| 20260830183249 | 89 | 205 | 6.0 | 10.0 | 0.00 | 0.00 | 0.00 | 61 | 1010.2 |
| 20260830183051 | 88 | 213 | 5.0 | 10.0 | 0.00 | 0.00 | 0.00 | 61 | 1007.6 |
| 20260830182730 | 89 | 180 | 6.0 | 10.0 | 0.00 | 0.00 | 0.00 | 60 | 1010.3 |
| 20260830182240 | 89 | 203 | 5.0 | 11.0 | 0.00 | 0.00 | 0.00 | 61 | 1010.4 |
| 20260830181722 | 89 | 174 | 6.0 | 14.0 | 0.00 | 0.00 | 0.00 | 60 | 1010.5 |
| 20260830181554 | 88 | 215 | 9.0 | 13.0 | 0.00 | 0.00 | 0.00 | 59 | 1007.7 |
| 20260830181234 | 89 | 210 | 9.0 | 18.0 | 0.00 | 0.00 | 0.00 | 59 | 1010.5 |
| 20260830180743 | 89 | 183 | 9.0 | 18.0 | 0.00 | 0.00 | 0.00 | 57 | 1010.7 |
| 20260830180227 | 90 | 186 | 12.0 | 17.0 | 0.00 | 0.00 | 0.00 | 57 | 1010.7 |
| 20260830180110 | 90 | 190 | 11.0 | 14.0 | 0.00 | 0.00 | 0.00 | 55 | 1008.0 |
| 20260830180002 | 90 | 209 | 10.0 | 17.0 | 0.00 | 0.00 | 0.00 | 56 | 1008.0 |
| 20260830175734 | 90 | 200 | 10.0 | 17.0 | 0.00 | 0.00 | 0.00 | 58 | 1010.7 |
| 20260830175244 | 90 | 219 | 10.0 | 17.0 | 0.00 | 0.00 | 0.00 | 56 | 1010.7 |
| 20260830174727 | 90 | 212 | 11.0 | 20.0 | 0.00 | 0.00 | 0.00 | 56 | 1010.7 |
| 20260830174515 | 89 | 170 | 11.0 | 17.0 | 0.00 | 0.00 | 0.00 | 57 | 1008.0 |
| 20260830174240 | 90 | 189 | 11.0 | 17.0 | 0.00 | 0.00 | 0.00 | 57 | 1010.7 |
| 20260830173722 | 90 | 183 | 10.0 | 17.0 | 0.00 | 0.00 | 0.00 | 55 | 1010.8 |
| 20260830173233 | 91 | 213 | 11.0 | 18.0 | 0.00 | 0.00 | 0.00 | 54 | 1010.8 |
| 20260830173012 | 90 | 160 | 11.0 | 18.0 | 0.00 | 0.00 | 0.00 | 54 | 1008.2 |
| 20260830172804 | 91 | 169 | 9.0 | 18.0 | 0.00 | 0.00 | 0.00 | 54 | 1010.8 |
| 20260830172227 | 91 | 210 | 9.0 | 18.0 | 0.00 | 0.00 | 0.00 | 55 | 1010.9 |
| 20260830171734 | 91 | 215 | 10.0 | 14.0 | 0.00 | 0.00 | 0.00 | 56 | 1010.9 |
| 20260830171549 | 91 | 192 | 9.0 | 14.0 | 0.00 | 0.00 | 0.00 | 55 | 1008.2 |
| 20260830171307 | 91 | 202 | 9.0 | 15.0 | 0.00 | 0.00 | 0.00 | 56 | 1010.8 |
| 20260830170729 | 91 | 173 | 11.0 | 16.0 | 0.00 | 0.00 | 0.00 | 56 | 1010.8 |
| 20260830170301 | 91 | 173 | 10.0 | 16.0 | 0.00 | 0.00 | 0.00 | 57 | 1010.8 |
| 20260830170055 | 90 | 138 | 11.0 | 15.0 | 0.00 | 0.00 | 0.00 | 56 | 1008.2 |
| 20260830165722 | 91 | 157 | 9.0 | 15.0 | 0.00 | 0.00 | 0.00 | 57 | 1010.8 |
| 20260830165252 | 91 | 177 | 7.0 | 16.0 | 0.00 | 0.00 | 0.00 | 60 | 1010.8 |
| 20260830164738 | 90 | 175 | 8.0 | 16.0 | 0.00 | 0.00 | 0.00 | 59 | 1010.8 |
| 20260830164534 | 89 | 171 | 9.0 | 16.0 | 0.00 | 0.00 | 0.00 | 58 | 1008.2 |
| 20260830164223 | 90 | 147 | 8.0 | 15.0 | 0.00 | 0.00 | 0.00 | 61 | 1010.9 |
| 20260830163731 | 89 | 171 | 8.0 | 16.0 | 0.00 | 0.00 | 0.00 | 60 | 1010.9 |
| 20260830163242 | 89 | 180 | 10.0 | 20.0 | 0.00 | 0.00 | 0.00 | 58 | 1010.8 |
| 20260830163041 | 88 | 186 | 8.0 | 20.0 | 0.00 | 0.00 | 0.00 | 59 | 1008.2 |
| 20260830162724 | 89 | 153 | 12.0 | 20.0 | 0.00 | 0.00 | 0.00 | 59 | 1010.8 |
| 20260830162234 | 88 | 165 | 8.0 | 14.0 | 0.00 | 0.00 | 0.00 | 60 | 1010.7 |
| 20260830161746 | 88 | 184 | 10.0 | 16.0 | 0.00 | 0.00 | 0.00 | 60 | 1010.8 |
| 20260830161549 | 87 | 185 | 7.0 | 12.0 | 0.00 | 0.00 | 0.00 | 60 | 1008.2 |
| 20260830161231 | 88 | 171 | 9.0 | 12.0 | 0.00 | 0.00 | 0.00 | 62 | 1010.8 |
| 20260830160736 | 87 | 167 | 8.0 | 12.0 | 0.00 | 0.00 | 0.00 | 62 | 1010.8 |
| 20260830160248 | 87 | 171 | 8.0 | 15.0 | 0.00 | 0.00 | 0.00 | 60 | 1010.7 |
| 20260830160042 | 87 | 190 | 8.0 | 15.0 | 0.00 | 0.00 | 0.00 | 62 | 1008.1 |
| 20260830155732 | 87 | 157 | 8.0 | 15.0 | 0.00 | 0.00 | 0.00 | 62 | 1010.7 |
| 20260830155243 | 86 | 159 | 8.0 | 11.0 | 0.00 | 0.00 | 0.00 | 61 | 1010.8 |
| 20260830154732 | 86 | 132 | 8.0 | 10.0 | 0.00 | 0.00 | 0.00 | 60 | 1010.8 |
| 20260830154516 | 86 | 162 | 6.0 | 11.0 | 0.00 | 0.00 | 0.00 | 61 | 1008.3 |
| 20260830154245 | 86 | 177 | 7.0 | 12.0 | 0.00 | 0.00 | 0.00 | 62 | 1010.9 |
| 20260830153726 | 86 | 173 | 7.0 | 10.0 | 0.00 | 0.00 | 0.00 | 63 | 1011.0 |
| 20260830153234 | 86 | 200 | 6.0 | 15.0 | 0.00 | 0.00 | 0.00 | 63 | 1010.9 |
| 20260830153014 | 85 | 185 | 8.0 | 15.0 | 0.00 | 0.00 | 0.00 | 63 | 1008.3 |
| 20260830152745 | 85 | 186 | 8.0 | 15.0 | 0.00 | 0.00 | 0.00 | 63 | 1011.0 |
| 20260830152228 | 85 | 185 | 7.0 | 10.0 | 0.00 | 0.00 | 0.00 | 66 | 1010.9 |
| 20260830151738 | 84 | 161 | 6.0 | 11.0 | 0.00 | 0.00 | 0.00 | 66 | 1010.7 |
| 20260830151512 | 83 | 173 | 7.0 | 11.0 | 0.00 | 0.00 | 0.00 | 66 | 1008.2 |
| 20260830151250 | 84 | 165 | 4.0 | 9.0 | 0.00 | 0.00 | 0.00 | 68 | 1010.8 |
| 20260830150738 | 83 | 162 | 6.0 | 9.0 | 0.00 | 0.00 | 0.00 | 69 | 1010.8 |
| 20260830150249 | 82 | 161 | 4.0 | 10.0 | 0.00 | 0.00 | 0.00 | 68 | 1010.7 |
| 20260830150046 | 82 | 153 | 4.0 | 10.0 | 0.00 | 0.00 | 0.00 | 69 | 1008.2 |
| 20260830145733 | 82 | 167 | 8.0 | 10.0 | 0.00 | 0.00 | 0.00 | 70 | 1010.7 |
| 20260830145238 | 81 | 163 | 5.0 | 9.0 | 0.00 | 0.00 | 0.00 | 69 | 1010.7 |
| 20260830144748 | 81 | 171 | 5.0 | 10.0 | 0.00 | 0.00 | 0.00 | 69 | 1010.8 |
| 20260830144546 | 80 | 160 | 2.0 | 10.0 | 0.00 | 0.00 | 0.00 | 69 | 1008.2 |
| 20260830144231 | 81 | 192 | 6.0 | 11.0 | 0.00 | 0.00 | 0.00 | 69 | 1010.7 |
| 20260830143742 | 80 | 166 | 7.0 | 11.0 | 0.00 | 0.00 | 0.00 | 69 | 1010.2 |
| 20260830143224 | 80 | 175 | 6.0 | 11.0 | 0.00 | 0.00 | 0.00 | 70 | 1010.4 |
| 20260830143042 | 79 | 177 | 7.0 | 11.0 | 0.00 | 0.00 | 0.00 | 71 | 1007.7 |
| 20260830142736 | 80 | 138 | 7.0 | 11.0 | 0.00 | 0.00 | 0.00 | 71 | 1010.2 |
| 20260830142221 | 79 | 144 | 5.0 | 9.0 | 0.00 | 0.00 | 0.00 | 72 | 1010.3 |
| 20260830141732 | 79 | 161 | 6.0 | 12.0 | 0.00 | 0.00 | 0.00 | 72 | 1010.4 |
| 20260830141545 | 78 | 178 | 6.0 | 12.0 | 0.00 | 0.00 | 0.00 | 72 | 1007.8 |
| 20260830141241 | 79 | 176 | 6.0 | 12.0 | 0.00 | 0.00 | 0.00 | 71 | 1010.5 |
| 20260830140722 | 79 | 174 | 5.0 | 8.0 | 0.00 | 0.00 | 0.00 | 71 | 1010.5 |
| 20260830140235 | 78 | 155 | 5.0 | 9.0 | 0.00 | 0.00 | 0.00 | 71 | 1010.6 |
| 20260830140050 | 78 | 153 | 4.0 | 9.0 | 0.00 | 0.00 | 0.00 | 71 | 1008.0 |
| 20260830135745 | 78 | 143 | 5.0 | 8.0 | 0.00 | 0.00 | 0.00 | 71 | 1010.5 |
| 20260830135229 | 78 | 150 | 4.0 | 7.0 | 0.00 | 0.00 | 0.00 | 71 | 1010.5 |
| 20260830134800 | 78 | 139 | 2.0 | 7.0 | 0.00 | 0.00 | 0.00 | 72 | 1010.6 |
| 20260830134541 | 78 | 139 | 2.0 | 7.0 | 0.00 | 0.00 | 0.00 | 72 | 1008.0 |
| 20260830134223 | 78 | 139 | 4.0 | 7.0 | 0.00 | 0.00 | 0.00 | 72 | 1010.5 |
| 20260830133731 | 78 | 136 | 4.0 | 5.0 | 0.00 | 0.00 | 0.00 | 72 | 1010.5 |
| 20260830133243 | 78 | 140 | 3.0 | 5.0 | 0.00 | 0.00 | 0.00 | 72 | 1010.5 |
| 20260830133036 | 77 | 128 | 3.0 | 7.0 | 0.00 | 0.00 | 0.00 | 71 | 1008.0 |
| 20260830132725 | 78 | 146 | 2.0 | 10.0 | 0.00 | 0.00 | 0.00 | 72 | 1010.7 |
| 20260830132238 | 78 | 146 | 3.0 | 10.0 | 0.00 | 0.00 | 0.00 | 71 | 1010.7 |
| 20260830131722 | 78 | 138 | 5.0 | 8.0 | 0.00 | 0.00 | 0.00 | 71 | 1010.6 |
| 20260830131534 | 77 | 139 | 3.0 | 9.0 | 0.00 | 0.00 | 0.00 | 71 | 1008.2 |
| 20260830131235 | 78 | 157 | 4.0 | 9.0 | 0.00 | 0.00 | 0.00 | 71 | 1010.6 |
| 20260830130745 | 78 | 207 | 5.0 | 10.0 | 0.00 | 0.00 | 0.00 | 71 | 1010.6 |
| 20260830130251 | 78 | 160 | 6.0 | 11.0 | 0.00 | 0.00 | 0.00 | 71 | 1010.6 |
| 20260830130002 | 77 | 157 | 6.0 | 11.0 | 0.00 | 0.00 | 0.00 | 71 | 1008.1 |
| 20260830125740 | 78 | 157 | 6.0 | 11.0 | 0.00 | 0.00 | 0.00 | 71 | 1010.6 |
| 20260830125225 | 78 | 160 | 7.0 | 11.0 | 0.00 | 0.00 | 0.00 | 70 | 1010.5 |
| 20260830124734 | 78 | 161 | 7.0 | 12.0 | 0.00 | 0.00 | 0.00 | 70 | 1010.6 |
| 20260830124511 | 77 | 163 | 7.0 | 15.0 | 0.00 | 0.00 | 0.00 | 70 | 1008.1 |
| 20260830124247 | 78 | 195 | 9.0 | 15.0 | 0.00 | 0.00 | 0.00 | 69 | 1010.5 |
| 20260830123727 | 78 | 147 | 10.0 | 15.0 | 0.00 | 0.00 | 0.00 | 69 | 1010.5 |
| 20260830123238 | 77 | 165 | 10.0 | 12.0 | 0.00 | 0.00 | 0.00 | 69 | 1010.6 |
| 20260830123010 | 77 | 178 | 8.0 | 13.0 | 0.00 | 0.00 | 0.00 | 69 | 1008.2 |
| 20260830122751 | 77 | 166 | 9.0 | 12.0 | 0.00 | 0.00 | 0.00 | 69 | 1010.7 |
| 20260830122238 | 77 | 197 | 8.0 | 11.0 | 0.00 | 0.00 | 0.00 | 70 | 1010.8 |
| 20260830121749 | 77 | 164 | 8.0 | 12.0 | 0.00 | 0.00 | 0.00 | 70 | 1010.8 |
| 20260830121553 | 77 | 163 | 9.0 | 14.0 | 0.00 | 0.00 | 0.00 | 70 | 1008.4 |
| 20260830121234 | 77 | 163 | 9.0 | 15.0 | 0.00 | 0.00 | 0.00 | 70 | 1010.7 |
| 20260830120742 | 77 | 165 | 9.0 | 15.0 | 0.00 | 0.00 | 0.00 | 70 | 1010.7 |
| 20260830120228 | 77 | 176 | 8.0 | 12.0 | 0.00 | 0.00 | 0.00 | 71 | 1010.7 |
| 20260830115739 | 77 | 175 | 8.0 | 12.0 | 0.00 | 0.00 | 0.00 | 71 | 1010.7 |
| 20260830115222 | 77 | 180 | 8.0 | 10.0 | 0.00 | 0.00 | 0.00 | 71 | 1010.6 |
| 20260830114734 | 76 | 183 | 7.0 | 10.0 | 0.00 | 0.00 | 0.00 | 72 | 1010.6 |
| 20260830114558 | 76 | 162 | 5.0 | 9.0 | 0.00 | 0.00 | 0.00 | 72 | 1008.2 |
| 20260830114303 | 76 | 156 | 4.0 | 7.0 | 0.00 | 0.00 | 0.00 | 72 | 1010.7 |
| 20260830113723 | 76 | 198 | 3.0 | 11.0 | 0.00 | 0.00 | 0.00 | 72 | 1010.8 |
| 20260830113235 | 76 | 166 | 7.0 | 11.0 | 0.00 | 0.00 | 0.00 | 72 | 1010.7 |
| 20260830113035 | 76 | 173 | 7.0 | 11.0 | 0.00 | 0.00 | 0.00 | 72 | 1008.2 |
| 20260830112748 | 76 | 169 | 8.0 | 11.0 | 0.00 | 0.00 | 0.00 | 72 | 1010.6 |
| 20260830112232 | 76 | 182 | 6.0 | 10.0 | 0.00 | 0.00 | 0.00 | 72 | 1010.7 |
| 20260830111745 | 76 | 170 | 7.0 | 11.0 | 0.00 | 0.00 | 0.00 | 72 | 1010.6 |
| 20260830111537 | 76 | 169 | 7.0 | 11.0 | 0.00 | 0.00 | 0.00 | 72 | 1008.2 |
| 20260830111228 | 76 | 163 | 6.0 | 11.0 | 0.00 | 0.00 | 0.00 | 72 | 1010.7 |
| 20260830110735 | 76 | 171 | 6.0 | 12.0 | 0.00 | 0.00 | 0.00 | 72 | 1010.8 |
| 20260830110247 | 76 | 190 | 7.0 | 12.0 | 0.00 | 0.00 | 0.00 | 73 | 1010.8 |
| 20260830110039 | 76 | 190 | 8.0 | 12.0 | 0.00 | 0.00 | 0.00 | 72 | 1008.4 |
| 20260830105729 | 76 | 181 | 7.0 | 10.0 | 0.00 | 0.00 | 0.00 | 73 | 1010.8 |
| 20260830105239 | 76 | 171 | 6.0 | 10.0 | 0.00 | 0.00 | 0.00 | 73 | 1010.9 |
| 20260830104731 | 76 | 176 | 7.0 | 10.0 | 0.00 | 0.00 | 0.00 | 73 | 1011.0 |
| 20260830104549 | 76 | 197 | 5.0 | 10.0 | 0.00 | 0.00 | 0.00 | 74 | 1008.7 |
| 20260830104241 | 76 | 213 | 6.0 | 10.0 | 0.00 | 0.00 | 0.00 | 73 | 1011.1 |
| 20260830103722 | 76 | 213 | 7.0 | 10.0 | 0.00 | 0.00 | 0.00 | 73 | 1011.1 |
| 20260830103249 | 77 | 203 | 6.0 | 9.0 | 0.00 | 0.00 | 0.00 | 73 | 1011.2 |
| 20260830103057 | 76 | 205 | 5.0 | 9.0 | 0.00 | 0.00 | 0.00 | 73 | 1008.7 |
| 20260830102800 | 77 | 214 | 5.0 | 8.0 | 0.00 | 0.00 | 0.00 | 73 | 1011.2 |
| 20260830102221 | 77 | 211 | 4.0 | 7.0 | 0.00 | 0.00 | 0.00 | 73 | 1011.1 |
| 20260830101733 | 77 | 232 | 4.0 | 6.0 | 0.00 | 0.00 | 0.00 | 74 | 1011.1 |
| 20260830101541 | 77 | 232 | 4.0 | 6.0 | 0.00 | 0.00 | 0.00 | 74 | 1008.7 |
| 20260830101246 | 77 | 232 | 4.0 | 8.0 | 0.00 | 0.00 | 0.00 | 73 | 1011.3 |
| 20260830100726 | 77 | 254 | 4.0 | 8.0 | 0.00 | 0.00 | 0.00 | 72 | 1011.3 |
| 20260830100239 | 77 | 211 | 3.0 | 6.0 | 0.00 | 0.00 | 0.00 | 72 | 1011.2 |
| 20260830100043 | 77 | 211 | 2.0 | 6.0 | 0.00 | 0.00 | 0.00 | 72 | 1008.7 |
| 20260830095748 | 77 | 211 | 4.0 | 6.0 | 0.00 | 0.00 | 0.00 | 72 | 1011.0 |
| 20260830095238 | 77 | 208 | 5.0 | 8.0 | 0.00 | 0.00 | 0.00 | 72 | 1011.1 |
| 20260830094809 | 77 | 226 | 5.0 | 8.0 | 0.00 | 0.00 | 0.00 | 72 | 1011.1 |
| 20260830094554 | 77 | 207 | 5.0 | 8.0 | 0.00 | 0.00 | 0.00 | 72 | 1008.6 |
| 20260830094230 | 77 | 200 | 4.0 | 10.0 | 0.00 | 0.00 | 0.00 | 72 | 1010.9 |
| 20260830093739 | 77 | 213 | 5.0 | 10.0 | 0.00 | 0.00 | 0.00 | 72 | 1010.8 |
| 20260830093222 | 77 | 215 | 6.0 | 10.0 | 0.00 | 0.00 | 0.00 | 72 | 1010.6 |
| 20260830093104 | 77 | 184 | 5.0 | 10.0 | 0.00 | 0.00 | 0.00 | 72 | 1008.2 |
| 20260830093003 | 77 | 184 | 5.0 | 11.0 | 0.00 | 0.00 | 0.00 | 72 | 1008.2 |
| 20260830092734 | 77 | 211 | 6.0 | 11.0 | 0.00 | 0.00 | 0.00 | 72 | 1010.7 |
| 20260830092243 | 77 | 175 | 7.0 | 11.0 | 0.00 | 0.00 | 0.00 | 72 | 1010.6 |
| 20260830091726 | 77 | 182 | 7.0 | 10.0 | 0.00 | 0.00 | 0.00 | 72 | 1010.6 |
| 20260830091503 | 76 | 172 | 6.0 | 12.0 | 0.00 | 0.00 | 0.00 | 72 | 1008.1 |
| 20260830091240 | 77 | 190 | 7.0 | 12.0 | 0.00 | 0.00 | 0.00 | 72 | 1010.6 |
| 20260830090749 | 77 | 170 | 7.0 | 10.0 | 0.00 | 0.00 | 0.00 | 72 | 1010.5 |
| 20260830090232 | 77 | 176 | 7.0 | 10.0 | 0.00 | 0.00 | 0.00 | 72 | 1010.6 |
| 20260830090005 | 76 | 168 | 6.0 | 11.0 | 0.00 | 0.00 | 0.00 | 72 | 1008.1 |
| 20260830085743 | 77 | 189 | 7.0 | 11.0 | 0.00 | 0.00 | 0.00 | 72 | 1010.6 |
| 20260830085227 | 77 | 170 | 7.0 | 11.0 | 0.00 | 0.00 | 0.00 | 72 | 1010.5 |
| 20260830084739 | 77 | 176 | 7.0 | 10.0 | 0.00 | 0.00 | 0.00 | 72 | 1010.4 |
| 20260830084553 | 76 | 172 | 6.0 | 10.0 | 0.00 | 0.00 | 0.00 | 72 | 1008.0 |
| 20260830084226 | 77 | 181 | 7.0 | 10.0 | 0.00 | 0.00 | 0.00 | 72 | 1010.5 |
| 20260830083730 | 77 | 175 | 6.0 | 11.0 | 0.00 | 0.00 | 0.00 | 72 | 1010.6 |
| 20260830083243 | 77 | 167 | 6.0 | 12.0 | 0.00 | 0.00 | 0.00 | 72 | 1010.6 |
| 20260830083104 | 76 | 198 | 7.0 | 12.0 | 0.00 | 0.00 | 0.00 | 72 | 1008.1 |
| 20260830082727 | 77 | 189 | 7.0 | 12.0 | 0.00 | 0.00 | 0.00 | 72 | 1010.4 |